User: anonymous   Login
Location: Unspecified
(0.0000°N, 0.0000°E)
Time: 19:54:37
(UTC+00:00)
Language:

Envisat - Orbit

View from above orbital plane
View from above orbital plane
View from above satellite
View from above satellite

Ground track
Ground track

The orbit data is extracted from the following two-line orbital elements,

1 27386U 02009A   19113.52504399 -.00000018  00000-0  76815-5 0  9991
2 27386  98.1541 137.4099 0001417  89.8222  26.1925 14.37946512898128
Epoch (UTC): 23 April 2019 12:36:03
Eccentricity: 0.0001417
inclination: 98.1541°
perigee height: 764 km
apogee height: 766 km
right ascension of ascending node: 137.4099°
argument of perigee: 89.8222°
revolutions per day: 14.37946512
mean anomaly at epoch: 26.1925°
orbit number at epoch: 89812

The dashed part of the orbit path shows where the satellite is in the earth's shadow,  

DLR